カタログに戻る

STARLINK-35176

運用中通信SSO
NORAD 65662·PAYLOAD·🇺🇸 United States

打ち上げ Sep 19, 2025 から Vandenberg Space Force Base

Loading…

次のパス (今後24時間)

TLE

最新Source: CelesTrak SupGP

元期: Sep 14, 2026, 23:14 UTC

1 65662C 25211L   26257.96854167  .00050458  00000+0  15670-2 0  2573
2 65662  97.2837 298.3486 0001079  86.8606 150.6345 15.33401410    11

AllMySatでSTARLINK-35176をリアルタイム追跡

Download on the App Store